Location: Newark
(34.6283°N, 36.0776°E)
Time: 09:19:35
(UTC+00:00)

Tiros 1 despin weight - Pass Details

Date: 27 September 2019
Orbit: 593 x 643 km, 48.2° (Epoch: 19 October)

Event Time Altitude Azimuth Distance (km) Brightness Sun altitude
Rises 14:21:32 0° 298° (WNW) 2,847 ? 12.4°
Reaches altitude 10° 14:24:02 10° 288° (WNW) 1,935 ? 11.9°
Maximum altitude 14:27:55 31° 226° (SW) 1,054 ? 11.1°
Drops below altitude 10° 14:31:47 10° 164° (SSE) 1,913 ? 10.3°
Sets 14:34:15 0° 154° (SSE) 2,809 ? 9.8°
